Regional Weather Roundup
Issued by NWS

Home | Current Version | Previous Version | Graphics & Text | Print | Product List | Glossary On
Versions: 1 2 3 4 5 6 7 8 9 10 11 12 13 14 15 16 17 18 19 20 21 22 23 24 25 26 27 28 29 30 31 32 33 34 35 36 37 38 39 40 41 42 43 44 45 46 47 48 49 50
000
ASUS44 KMEG 231000
RWRTN
TENNESSEE HOURLY STATE WEATHER ROUNDUP
NATIONAL WEATHER SERVICE MEMPHIS TN
500 AM CDT SAT JUL 23 2016

TNZ002-004-019-021-049-052-054-088>092-231100-
WEST TENNESSEE

CITY           SKY/WX    TMP DP  RH WIND       PRES   REMARKS
MEMPHIS INTL   TSTM      80  73  79 CALM      29.97F
NWS MEMPHIS      N/A     76 N/A N/A MISG        N/A
JACKSON        CLOUDY    74  73  97 S3        29.99R
DYERSBURG      CLOUDY    73  72  94 MISG      29.98R
UNION CITY     CLEAR     73  73 100 CALM      29.96S
PARIS          CLEAR     72  72 100 CALM      29.99S
LEXINGTON      CLEAR     73  73 100 CALM      29.99R
$$

TNZ008-025-027-028-033-062-065-066-231100-
NORTH MIDDLE TENNESSEE

CITY           SKY/WX    TMP DP  RH WIND       PRES   REMARKS
NASHVILLE      MOCLDY    75  72  90 CALM      30.00S
CLARKSVILLE    PTCLDY    74  71  91 CALM      29.99S
COOKEVILLE     CLEAR     73  73 100 CALM      30.02S
CROSSVILLE     CLOUDY    73  72  96 CALM      30.08S FOG
$$

TNZ061-075-076-078-094-096-097-231100-
SOUTH MIDDLE TENNESSEE

CITY           SKY/WX    TMP DP  RH WIND       PRES   REMARKS
TULLAHOMA      CLEAR     73  72  94 CALM      30.04S
WINCHESTER     CLEAR     73  72  94 CALM      30.04R
MCMINNVILLE    CLEAR     72  72 100 CALM      30.03S
COLUMBIA       CLEAR    N/A N/A N/A CALM      30.00R
SHELBYVILLE    CLOUDY    75  75 100 CALM      30.02S
$$

TNZ017-018-042-046-047-231100-
NORTHEAST TENNESSEE

CITY           SKY/WX    TMP DP  RH WIND       PRES   REMARKS
TRI CITIES     PTCLDY    69  67  93 CALM      30.07R
$$

TNZ012-013-036-069-073-074-231100-
CENTRAL EAST TENNESSEE

CITY           SKY/WX    TMP DP  RH WIND       PRES   REMARKS
KNOXVILLE      CLOUDY    78  71  79 CALM      30.02R
OAK RIDGE      CLOUDY    78  73  84 CALM      30.04R
GATLINBURG     PTCLDY    73  70  88 CALM      30.03R
$$

TNZ083-085-099-231100-
SOUTHEAST TENNESSEE

CITY           SKY/WX    TMP DP  RH WIND       PRES   REMARKS
CHATTANOOGA    CLOUDY    77  71  82 CALM      30.01R
$$

SKY/WX REPORTED AS FAIR MEANS FEW OR NO CLOUDS BELOW
12 THOUSAND FEET.





USA.gov is the U.S. government's official web portal to all federal, state and local government web resources and services.